TimeEDT,TemperatureF,Dew PointF,Humidity,Sea Level PressureIn,VisibilityMPH,Wind Direction,Wind SpeedMPH,Gust SpeedMPH,PrecipitationIn,Events,Conditions,WindDirDegrees,DateUTC
12:18 AM,80.6,71.6,74,29.93,10.0,SSW,9.2,-,N/A,,Mostly Cloudy,210,2013-06-26 04:18:00
12:45 AM,80.6,71.6,74,29.93,9.0,SSW,11.5,-,N/A,Thunderstorm,Thunderstorm,210,2013-06-26 04:45:00
12:56 AM,79.0,71.1,77,29.90,9.0,SSW,10.4,-,N/A,Thunderstorm,Thunderstorm,200,2013-06-26 04:56:00
1:13 AM,78.8,71.6,78,29.92,9.0,SSW,10.4,-,N/A,,Mostly Cloudy,210,2013-06-26 05:13:00
1:38 AM,77.0,66.2,69,29.93,10.0,WNW,12.7,-,0.00,Rain-Thunderstorm,Light Thunderstorms and Rain,300,2013-06-26 05:38:00
1:56 AM,75.0,64.9,71,29.91,10.0,NW,15.0,-,0.00,Thunderstorm,Thunderstorm,310,2013-06-26 05:56:00
2:05 AM,73.4,66.2,78,29.94,10.0,NNW,12.7,-,N/A,,Mostly Cloudy,330,2013-06-26 06:05:00
2:56 AM,72.0,66.0,81,29.92,10.0,West,5.8,-,0.00,Rain,Light Rain,280,2013-06-26 06:56:00
3:56 AM,71.1,66.0,84,29.91,10.0,Calm,Calm,-,0.00,,Overcast,0,2013-06-26 07:56:00
4:56 AM,71.1,66.9,87,29.93,10.0,SW,11.5,-,0.00,Rain,Light Rain,220,2013-06-26 08:56:00
5:56 AM,70.0,66.0,87,29.92,10.0,SSW,9.2,-,0.03,Rain,Light Rain,210,2013-06-26 09:56:00
6:56 AM,69.1,66.9,93,29.89,10.0,South,9.2,-,0.00,,Mostly Cloudy,190,2013-06-26 10:56:00
7:56 AM,70.0,66.9,90,29.91,10.0,WSW,9.2,20.7,N/A,,Scattered Clouds,240,2013-06-26 11:56:00
8:00 AM,69.8,68.0,94,29.95,10.0,WSW,11.5,-,N/A,,Scattered Clouds,250,2013-06-26 12:00:00
8:56 AM,73.0,66.9,81,29.91,10.0,WSW,8.1,-,N/A,,Mostly Cloudy,240,2013-06-26 12:56:00
9:56 AM,75.9,66.9,74,29.91,10.0,SW,9.2,-,N/A,,Mostly Cloudy,220,2013-06-26 13:56:00
10:56 AM,77.0,64.9,66,29.90,10.0,SSW,10.4,-,N/A,,Mostly Cloudy,210,2013-06-26 14:56:00
11:56 AM,81.0,68.0,65,29.91,10.0,SW,11.5,-,N/A,,Mostly Cloudy,230,2013-06-26 15:56:00
12:56 PM,81.0,69.1,67,29.90,10.0,SSW,8.1,-,N/A,,Mostly Cloudy,200,2013-06-26 16:56:00
1:56 PM,81.0,70.0,69,29.88,10.0,South,8.1,-,N/A,,Mostly Cloudy,180,2013-06-26 17:56:00
2:56 PM,81.0,70.0,69,29.85,10.0,South,11.5,-,N/A,,Overcast,180,2013-06-26 18:56:00
3:51 PM,77.0,66.2,69,29.90,10.0,West,25.3,39.1,N/A,Thunderstorm,Thunderstorm,260,2013-06-26 19:51:00
3:56 PM,73.9,64.9,73,29.87,8.0,West,20.7,39.1,0.00,Rain-Thunderstorm,Light Thunderstorms and Rain,270,2013-06-26 19:56:00
4:01 PM,69.8,66.2,88,29.88,1.8,West,16.1,27.6,0.01,Rain-Thunderstorm,Heavy Thunderstorms and Rain,280,2013-06-26 20:01:00
4:15 PM,69.8,66.2,88,29.87,3.0,South,9.2,-,0.14,Rain-Thunderstorm,Light Thunderstorms and Rain,180,2013-06-26 20:15:00
4:28 PM,69.8,66.2,88,29.84,10.0,SSE,4.6,-,0.14,Rain-Thunderstorm,Light Thunderstorms and Rain,150,2013-06-26 20:28:00
4:48 PM,73.4,68.0,83,29.84,10.0,Calm,Calm,-,0.14,,Mostly Cloudy,0,2013-06-26 20:48:00
4:56 PM,75.0,68.0,79,29.82,10.0,East,5.8,-,0.14,,Mostly Cloudy,100,2013-06-26 20:56:00
5:50 PM,73.4,68.0,83,29.85,3.0,WSW,5.8,27.6,0.00,Rain-Thunderstorm,Heavy Thunderstorms and Rain,250,2013-06-26 21:50:00
5:56 PM,73.0,69.1,87,29.82,2.0,SW,4.6,18.4,0.06,Rain-Thunderstorm,Thunderstorms and Rain,220,2013-06-26 21:56:00
6:08 PM,73.4,69.8,88,29.84,10.0,WSW,5.8,-,0.00,Rain-Thunderstorm,Light Thunderstorms and Rain,250,2013-06-26 22:08:00
6:31 PM,73.4,69.8,88,29.83,10.0,SW,4.6,-,0.02,,Mostly Cloudy,220,2013-06-26 22:31:00
6:56 PM,73.9,71.1,91,29.81,8.0,SSW,5.8,-,0.02,Rain,Light Rain,200,2013-06-26 22:56:00
7:56 PM,73.9,70.0,87,29.80,9.0,South,8.1,-,0.01,,Mostly Cloudy,190,2013-06-26 23:56:00
8:56 PM,73.0,70.0,90,29.79,8.0,SSW,8.1,-,N/A,,Overcast,200,2013-06-27 00:56:00
9:56 PM,71.1,69.1,93,29.78,10.0,South,10.4,-,N/A,,Mostly Cloudy,190,2013-06-27 01:56:00
10:20 PM,71.6,69.8,94,29.80,7.0,SW,10.4,-,N/A,,Overcast,220,2013-06-27 02:20:00
10:28 PM,71.6,69.8,94,29.80,8.0,South,9.2,-,N/A,,Mostly Cloudy,190,2013-06-27 02:28:00
10:56 PM,71.1,69.1,93,29.78,7.0,South,4.6,-,N/A,,Overcast,180,2013-06-27 02:56:00
11:03 PM,71.6,69.8,94,29.81,7.0,South,5.8,-,N/A,,Overcast,180,2013-06-27 03:03:00
11:56 PM,71.1,69.1,93,29.80,7.0,South,6.9,-,N/A,,Overcast,190,2013-06-27 03:56:00